Location: Newark
(48.1500°N, 80.0333°W)
Time: 19:12:42
(UTC+00:00)

ISS - Visible Passes

Search period start: 19 February 2020 00:00
Search period end: 29 February 2020 00:00
Orbit: 416 x 422 km, 51.6° (Epoch: 20 February)

Date Brightness Start Highest point End Pass type
(mag) Time Alt. Az. Time Alt. Az. Time Alt. Az.
21 Feb -0.8 11:07:52 10° S 11:09:44 14° SE 11:11:37 10° ESE visible
23 Feb -2.1 11:07:51 10° SSW 11:10:53 32° SE 11:13:57 10° E visible
24 Feb -1.5 10:21:34 14° S 10:23:22 21° SE 10:26:01 10° E visible
25 Feb -1.0 09:36:09 14° SE 09:36:09 14° SE 09:37:45 10° ESE visible
25 Feb -3.5 11:09:07 12° WSW 11:12:12 70° SSE 11:15:34 10° ENE visible
26 Feb -3.0 10:23:34 35° SSW 10:24:33 47° SSE 10:27:50 10° ENE visible
27 Feb -1.7 09:37:55 26° ESE 09:37:55 26° ESE 09:40:00 10° E visible
27 Feb -3.6 11:10:52 15° W 11:13:36 66° NNW 11:16:59 10° ENE visible
28 Feb -3.9 10:25:07 51° WSW 10:25:52 85° NNW 10:29:16 10° ENE visible
